User: anonymous   Login
Location: Unspecified
(0.0000°N, 0.0000°E)
Time: 14:58:03
(UTC+00:00)
Language:

PROBA 2 - Orbit

View from above orbital plane
View from above orbital plane
View from above satellite
View from above satellite

Ground track
Ground track

The orbit data is extracted from the following two-line orbital elements,

1 36037U 09059B   14356.01892774  .00000669  00000-0  17389-3 0  5975
2 36037 098.2774 186.4095 0012277 248.9001 270.0154 14.52735037272269
Epoch (UTC): 22 December 2014 00:27:15
Eccentricity: 0.0012277
inclination: 98.2774°
perigee height: 708 km
apogee height: 725 km
right ascension of ascending node: 186.4095°
argument of perigee: 248.9001°
revolutions per day: 14.52735037
mean anomaly at epoch: 270.0154°
orbit number at epoch: 27226

The dashed part of the orbit path shows where the satellite is in the earth's shadow,  

DLR